Back to catalog

YAOGAN-35 03C

AliveMilitaryVLEO
NORAD 53320·PAYLOAD·🇨🇳 China

Launched Jul 29, 2022 from Xichang Satellite Launch Center

Loading…

Next Passes (next 24 hours)

TLE

FreshSource: Space-Track

Epoch: Sep 14, 2026, 12:54 UTC

1 53320U 22088E   26257.53779199  .00036146  00000-0  58829-3 0  9990
2 53320  34.9940 287.9460 0002884 187.8955 172.1724 15.51615276230799

Track YAOGAN-35 03C in real time with AllMySat

Download on the App Store